Wind_Speed
3 4 4 4 4 4 5 4 4 5 6 6 6 6 6 5 5 6 6 7 7 8 8 9 9 9 9 9 9 9 10 9 9 9 10 10 9 10 11 11 11 11 11
4 4 4 4 4 4 4 4 4 5 5 6 6 7 6 7 7 6 6 7 7 8 8 8 9 9 9 10 10 10 10 10 10 10 10 10 11 11 12 12 13 12 12
4 4 5 5 4 4 4 4 4 4 5 6 6 6 6 7 7 7 7 7 7 7 8 8 9 9 9 9 10 10 10 11 10 10 10 11 12 12 12 13 13 14 14
5 5 5 5 5 4 4 4 4 5 6 6 6 6 6 6 7 7 7 8 8 8 8 8 9 9 10 10 10 10 10 11 12 12 12 12 13 13 13 14 14 15 15
5 6 6 6 5 5 5 5 5 5 6 6 6 6 6 6 7 7 8 9 9 9 9 9 9 10 11 11 11 11 11 12 12 13 13 13 14 14 14 15 15 15 15
5 5 6 6 6 5 5 5 6 6 6 6 6 6 6 6 6 7 8 8 9 9 9 10 10 10 11 12 12 12 13 13 13 13 13 14 15 15 15 15 15 15 16
6 6 6 6 6 6 6 6 6 6 6 7 7 7 7 6 7 7 8 8 8 9 10 10 10 11 11 12 13 13 13 14 14 14 14 14 14 15 15 14 15 15 15
7 6 6 7 7 7 7 7 7 7 7 7 7 7 7 7 7 7 8 8 8 9 10 10 11 12 12 12 13 14 15 15 15 14 14 14 14 14 14 14 14 15 16
8 8 7 7 8 8 8 8 7 8 8 8 8 8 8 8 8 7 8 8 9 10 10 11 12 12 13 13 14 15 16 16 17 17 16 15 15 15 15 14 15 16 16
10 10 9 9 9 9 9 9 8 8 9 9 9 9 9 8 9 8 8 9 9 10 10 11 12 12 13 13 14 14 15 16 16 17 17 16 15 15 15 15 16 17 17
12 11 11 11 10 10 11 11 10 10 10 10 9 9 9 9 9 9 9 9 10 10 11 11 12 13 13 14 15 15 15 15 16 16 17 17 17 17 17 17 17 17 18
14 13 13 12 12 12 12 12 11 11 11 11 10 10 9 9 9 10 10 11 10 11 12 12 13 14 14 15 15 16 16 15 16 17 17 17 18 18 18 18 18 18 17
15 15 14 14 14 14 13 13 13 13 12 11 11 11 11 10 10 10 11 12 12 12 13 13 13 14 15 16 16 17 17 18 17 17 18 18 18 17 18 18 18 18 18
16 16 16 16 15 14 14 14 14 14 13 13 13 13 13 12 11 12 12 13 13 13 13 14 15 15 16 17 17 17 18 19 19 19 19 19 19 20 19 19 19 19 20
19 18 18 17 16 16 16 16 16 15 15 15 15 15 15 14 13 13 14 14 14 14 14 15 16 17 17 17 18 18 18 19 20 21 21 20 21 21 20 20 20 21 21
19 19 19 18 18 17 17 17 17 17 17 17 16 16 16 17 16 15 15 16 16 16 15 16 16 16 17 18 19 19 19 20 20 21 21 22 22 22 22 22 22 22 22
20 19 19 20 19 18 18 18 18 19 18 18 18 17 17 17 16 16 17 17 18 18 18 18 17 17 18 18 19 19 20 20 20 21 21 22 23 24 24 23 24 24 23
21 21 21 20 19 19 19 19 19 19 19 19 19 19 19 19 18 18 18 18 19 19 19 19 19 19 19 19 19 19 20 20 20 21 22 22 22 23 24 24 24 24 25
23 23 23 23 21 21 21 21 21 21 21 20 20 20 20 21 20 20 20 20 20 20 20 20 20 21 21 20 20 21 21 22 22 22 23 22 22 22 23 24 24 25 25
24 24 23 23 22 22 22 22 22 22 22 22 21 21 22 22 22 21 22 21 22 22 22 22 22 22 22 22 22 22 23 23 24 24 23 23 23 23 23 23 24 24 25
25 24 24 23 23 23 23 24 24 24 23 23 22 22 23 23 23 22 22 23 23 23 23 23 23 23 23 23 24 25 25 25 25 25 25 24 24 24 23 24 24 24 25
26 25 25 25 24 24 24 26 26 25 25 24 24 23 23 24 24 23 23 23 24 24 24 24 24 24 24 25 25 26 26 26 26 26 26 25 25 25 25 25 26 26 26
27 26 26 26 26 26 26 26 27 25 25 24 24 24 23 24 24 23 23 24 24 25 25 24 24 24 25 25 25 25 25 26 26 27 27 26 26 27 27 27 27 27 27
27 26 26 26 27 26 26 26 26 26 26 26 25 25 24 25 25 24 24 24 24 24 24 24 24 24 24 25 26 26 26 26 27 27 27 26 26 27 27 27 27 27 27
25 26 26 27 27 27 26 27 27 27 27 26 25 26 26 25 26 25 25 24 24 24 24 23 24 24 24 25 25 26 26 26 26 27 27 26 26 27 27 27 28 28 28
24 25 26 27 27 26 27 27 27 27 26 26 26 26 26 26 26 25 25 24 24 24 24 24 24 25 25 25 25 26 26 27 27 27 27 28 27 28 28 28 28 28 29
Wind_Direction
348 340 333 337 331 320 305 287 271 268 267 274 281 282 285 279 278 277 268 257 250 247 248 247 247 245 245 248 245 246 249 249 249 249 250 252 253 253 252 255 260 264 266
338 338 335 333 330 321 301 292 279 270 271 274 278 281 286 283 273 270 266 259 251 247 246 247 246 244 246 247 249 252 253 252 251 249 250 253 257 259 258 257 259 261 264
339 330 326 324 322 323 312 292 284 280 279 279 285 285 282 279 275 269 263 256 252 250 249 249 245 244 245 247 248 251 252 253 253 252 252 256 260 263 262 264 263 263 264
340 336 333 331 321 311 305 294 289 284 279 281 292 290 280 275 272 266 260 253 252 252 250 251 249 247 247 248 250 251 252 253 253 255 256 259 259 262 263 266 265 265 265
331 325 328 333 326 320 306 297 293 287 283 289 293 291 283 278 276 266 259 255 254 251 250 250 253 253 248 249 252 253 254 255 256 258 260 260 262 265 265 266 265 264 264
326 328 327 330 329 324 314 296 291 290 295 292 291 289 284 288 284 273 265 260 254 251 251 254 257 262 255 250 253 256 256 256 257 259 261 263 266 266 267 267 267 266 264
311 317 320 320 322 317 311 299 292 290 290 288 285 283 282 282 287 282 269 265 261 255 254 257 259 259 263 260 257 257 257 260 261 262 265 267 271 271 266 265 267 266 265
305 307 311 309 308 306 300 292 286 284 284 286 285 283 285 287 282 276 269 265 264 263 263 261 261 263 266 266 263 262 261 263 264 262 268 270 272 272 267 265 265 268 268
299 299 304 307 303 298 298 296 289 288 289 291 291 287 287 285 281 277 274 270 267 266 266 267 268 266 267 267 266 265 267 265 265 266 266 269 272 272 268 264 266 269 268
292 294 291 295 294 290 288 291 292 288 288 289 292 290 288 286 279 273 273 274 273 270 268 268 268 268 269 268 269 269 269 269 268 266 264 267 268 268 267 265 265 268 269
287 290 285 284 287 287 287 288 287 287 288 288 286 288 288 287 284 278 275 275 274 273 273 271 268 270 272 272 270 269 271 270 268 265 264 266 268 270 268 267 268 268 269
279 281 282 282 281 284 287 286 283 284 285 284 281 280 280 281 282 279 277 274 274 275 276 275 273 272 272 273 271 269 271 272 268 266 266 267 269 270 266 267 268 269 269
276 278 280 283 283 280 281 281 280 280 280 281 279 277 276 277 277 276 275 274 274 276 277 276 277 276 274 274 275 273 272 274 272 267 267 266 269 269 268 268 268 269 271
276 276 277 279 280 283 281 279 280 277 276 276 277 276 273 272 273 273 274 275 277 277 278 276 276 277 276 274 276 276 273 274 275 271 270 269 270 269 269 270 271 271 271
278 277 279 277 278 281 283 280 279 276 273 274 276 276 272 271 271 271 273 274 276 278 279 277 275 277 278 276 278 278 277 274 274 272 270 270 271 271 273 272 272 270 270
278 278 277 277 276 277 280 282 280 276 273 273 274 275 273 271 271 270 274 274 274 276 277 278 277 278 278 278 278 280 279 278 275 274 273 270 271 272 273 273 272 270 271
275 277 277 275 275 274 276 279 282 279 275 275 273 272 274 271 269 272 275 275 275 275 274 275 277 278 279 282 282 281 280 279 279 278 278 276 272 271 271 272 272 271 272
273 273 275 275 273 273 273 274 276 277 275 275 273 270 270 270 271 272 274 275 275 274 274 275 275 277 278 281 283 283 281 278 280 279 279 279 276 274 272 273 271 271 272
271 274 275 274 272 272 273 274 274 276 276 276 274 270 270 271 271 273 273 275 275 275 276 276 275 275 277 279 282 282 281 280 279 280 279 278 277 276 275 274 272 272 272
273 275 274 273 272 272 272 273 274 275 276 275 274 271 270 271 271 273 274 274 275 275 276 276 276 276 277 277 279 282 281 279 278 279 280 278 277 277 276 275 274 275 274
271 271 272 272 274 273 272 272 273 273 273 273 273 272 271 271 270 273 273 274 275 275 275 276 276 276 277 278 278 280 280 277 278 280 280 279 278 278 278 278 278 276 275
269 269 270 271 273 273 272 271 270 270 271 272 272 274 273 274 272 272 273 274 275 275 275 275 275 275 276 276 278 280 280 277 277 278 277 278 278 277 278 279 279 279 277
267 268 269 270 272 274 273 273 270 269 271 272 273 274 273 274 273 274 274 274 275 275 275 274 274 274 275 276 278 279 280 278 278 278 277 277 278 278 278 279 278 278 278
270 268 268 270 273 274 274 273 271 272 273 273 272 273 274 276 275 275 275 275 275 276 274 274 275 275 275 276 277 278 280 280 279 279 280 280 281 280 278 279 279 279 278
272 269 268 268 270 273 274 274 272 272 273 273 273 273 274 275 274 274 274 274 274 275 275 273 273 274 276 277 278 278 280 281 280 280 281 282 282 281 280 281 281 279 279
272 269 267 267 269 271 272 273 273 273 272 272 272 273 273 273 273 273 272 272 273 275 274 273 273 274 276 278 279 279 281 282 281 282 282 281 281 281 282 281 280 280 280
Height
5870 5869 5869 5869 5868 5868 5868 5867 5867 5868 5868 5868 5868 5868 5867 5868 5868 5868 5868 5868 5868 5869 5869 5870 5871 5872 5873 5873 5874 5874 5875 5876 5876 5877 5878 5878 5879 5879 5880 5880 5880 5881 5881
5869 5869 5869 5868 5867 5867 5867 5866 5866 5867 5867 5867 5867 5867 5867 5866 5867 5867 5866 5867 5867 5867 5868 5869 5870 5870 5871 5871 5872 5873 5873 5873 5874 5875 5875 5876 5876 5877 5877 5877 5878 5878 5878
5869 5868 5868 5867 5867 5866 5866 5865 5865 5865 5866 5865 5865 5865 5865 5865 5865 5865 5865 5865 5865 5866 5866 5867 5868 5868 5869 5869 5870 5871 5871 5871 5872 5872 5873 5873 5874 5874 5874 5874 5875 5875 5876
5868 5868 5867 5866 5866 5865 5865 5864 5864 5864 5864 5864 5864 5864 5864 5863 5863 5863 5863 5863 5863 5864 5864 5865 5866 5866 5867 5867 5868 5868 5869 5869 5870 5870 5870 5870 5871 5871 5871 5871 5871 5872 5872
5867 5867 5866 5866 5865 5864 5864 5864 5863 5863 5863 5863 5862 5862 5862 5861 5861 5861 5861 5861 5861 5862 5862 5863 5863 5864 5864 5865 5865 5866 5866 5867 5867 5867 5867 5867 5867 5867 5867 5867 5868 5868 5869
5866 5865 5865 5864 5864 5863 5863 5862 5862 5862 5862 5861 5861 5861 5860 5860 5859 5859 5859 5859 5859 5859 5860 5860 5861 5861 5862 5862 5862 5863 5863 5864 5864 5864 5864 5864 5863 5863 5862 5863 5863 5864 5864
5864 5864 5863 5863 5862 5862 5861 5861 5860 5860 5860 5860 5860 5859 5859 5858 5857 5857 5857 5857 5857 5857 5858 5858 5858 5859 5859 5859 5860 5860 5860 5860 5860 5860 5860 5860 5859 5858 5857 5858 5859 5859 5860
5863 5862 5862 5861 5861 5860 5859 5859 5859 5858 5858 5858 5858 5857 5857 5857 5856 5855 5855 5855 5855 5855 5855 5855 5855 5856 5856 5856 5857 5857 5857 5857 5857 5856 5856 5856 5855 5854 5853 5853 5854 5855 5856
5861 5860 5860 5860 5859 5858 5858 5857 5857 5856 5856 5856 5855 5855 5855 5854 5854 5853 5853 5852 5852 5852 5852 5852 5852 5853 5853 5853 5853 5853 5853 5853 5852 5852 5852 5852 5851 5850 5849 5850 5850 5852 5853
5859 5859 5858 5858 5857 5856 5855 5855 5854 5854 5853 5853 5852 5852 5852 5851 5851 5851 5850 5850 5849 5849 5849 5849 5850 5850 5850 5850 5850 5849 5849 5848 5847 5846 5847 5848 5847 5847 5847 5847 5847 5848 5849
5857 5856 5856 5855 5854 5854 5853 5852 5852 5851 5850 5850 5850 5849 5849 5848 5848 5848 5848 5847 5847 5847 5846 5846 5847 5847 5846 5846 5846 5846 5845 5843 5842 5842 5843 5844 5844 5844 5844 5844 5845 5845 5846
5854 5853 5853 5852 5851 5851 5850 5849 5849 5848 5847 5847 5847 5846 5846 5845 5845 5844 5844 5844 5844 5844 5843 5843 5843 5843 5843 5842 5842 5842 5841 5840 5839 5839 5840 5840 5840 5840 5840 5841 5841 5841 5841
5850 5850 5849 5849 5848 5847 5846 5846 5845 5845 5844 5844 5844 5843 5843 5842 5842 5841 5841 5841 5840 5840 5840 5839 5839 5839 5839 5838 5838 5837 5837 5836 5835 5835 5836 5836 5836 5836 5837 5837 5837 5837 5837
5846 5846 5845 5845 5844 5843 5842 5842 5841 5841 5840 5840 5840 5840 5839 5839 5839 5838 5838 5837 5837 5837 5836 5836 5836 5835 5835 5834 5833 5833 5833 5832 5832 5831 5831 5831 5831 5832 5832 5832 5832 5832 5832
5842 5841 5841 5840 5840 5839 5838 5838 5837 5837 5837 5836 5836 5836 5835 5835 5835 5834 5834 5834 5834 5833 5833 5832 5832 5831 5830 5830 5829 5828 5828 5827 5827 5827 5827 5827 5827 5827 5827 5827 5827 5827 5827
5837 5837 5836 5836 5835 5834 5834 5833 5833 5832 5832 5832 5832 5831 5831 5831 5830 5830 5830 5829 5829 5829 5828 5828 5827 5826 5826 5825 5824 5824 5823 5823 5822 5822 5822 5821 5821 5821 5821 5821 5821 5821 5821
5832 5832 5831 5830 5830 5829 5829 5829 5828 5828 5827 5827 5827 5826 5826 5825 5825 5825 5825 5824 5824 5824 5823 5823 5822 5822 5821 5820 5820 5819 5818 5818 5817 5817 5816 5816 5815 5815 5815 5815 5815 5815 5815
5827 5826 5826 5825 5825 5824 5824 5824 5823 5822 5822 5822 5821 5821 5821 5820 5820 5820 5819 5819 5819 5818 5818 5818 5817 5816 5816 5815 5815 5814 5813 5812 5812 5811 5811 5810 5809 5809 5809 5809 5808 5808 5808
5820 5820 5819 5819 5818 5818 5818 5818 5817 5817 5817 5816 5815 5815 5815 5815 5814 5814 5813 5813 5813 5812 5812 5812 5811 5811 5810 5810 5809 5809 5808 5807 5806 5805 5805 5804 5803 5803 5802 5802 5802 5802 5801
5813 5813 5813 5812 5812 5812 5812 5811 5811 5811 5811 5810 5810 5809 5809 5808 5808 5807 5807 5807 5806 5806 5806 5805 5805 5804 5804 5804 5803 5803 5802 5801 5800 5799 5798 5798 5797 5796 5796 5795 5795 5795 5794
5806 5806 5806 5806 5805 5805 5805 5805 5804 5804 5804 5803 5803 5802 5801 5801 5801 5800 5800 5800 5800 5799 5799 5798 5798 5798 5797 5797 5797 5796 5795 5794 5793 5792 5792 5791 5790 5790 5789 5788 5788 5787 5787
5798 5798 5798 5798 5798 5798 5798 5797 5797 5797 5797 5796 5796 5795 5794 5794 5794 5793 5793 5792 5792 5792 5792 5791 5791 5791 5790 5790 5789 5788 5788 5787 5786 5786 5785 5784 5783 5782 5782 5781 5780 5780 5779
5790 5790 5791 5791 5791 5791 5790 5790 5789 5789 5789 5789 5789 5788 5788 5787 5787 5786 5785 5785 5784 5784 5784 5784 5783 5783 5783 5782 5782 5781 5780 5780 5779 5778 5777 5777 5776 5775 5774 5773 5772 5771 5771
5781 5781 5782 5783 5783 5783 5782 5782 5782 5781 5781 5782 5782 5781 5781 5780 5779 5779 5778 5777 5777 5776 5776 5776 5776 5775 5775 5774 5774 5774 5773 5772 5772 5770 5769 5769 5768 5767 5766 5765 5764 5763 5762
5772 5772 5773 5774 5774 5775 5774 5774 5774 5774 5774 5773 5773 5773 5773 5772 5772 5771 5771 5770 5770 5769 5769 5768 5768 5768 5767 5767 5766 5766 5765 5765 5764 5763 5762 5760 5760 5759 5758 5757 5755 5754 5753
5763 5764 5764 5765 5765 5766 5766 5766 5765 5765 5766 5766 5765 5765 5765 5764 5764 5764 5764 5763 5763 5762 5762 5761 5761 5760 5760 5760 5759 5759 5757 5757 5755 5755 5754 5752 5751 5750 5750 5749 5747 5745 5744